WZ8H Weather Reports


Display with metric or nautical units.
time (UTC)temp
F
wind
direction
speed
MPH
gust
MPH
rain 1hr
in
rain 24hr
in
rain mn
in
humidity
%
barometer
mb
20260903051307 81 342 4.0 13.0 0.00 0.00 0.00 85 1014.4
20260903050742 82 355 3.0 8.0 0.00 0.00 0.00 86 1014.2
20260903050222 82 259 2.0 8.0 0.00 0.00 0.00 86 1013.2
20260903045715 82 214 2.0 8.0 0.00 0.00 0.00 86 1013.2
20260903045212 82 259 2.0 8.0 0.00 0.00 0.00 86 1013.1
20260903044710 82 232 2.0 4.0 0.00 0.00 0.00 86 1013.2
20260903044202 82 234 2.0 6.0 0.00 0.00 0.00 86 1013.0
20260903043647 82 222 2.0 6.0 0.00 0.00 0.00 86 1013.1
20260903043146 82 234 2.0 5.0 0.00 0.00 0.00 85 1012.8
20260903042644 82 230 3.0 10.0 0.00 0.00 0.00 85 1012.8
20260903042147 83 262 3.0 10.0 0.00 0.00 0.00 85 1012.8
20260903041621 83 261 3.0 8.0 0.00 0.00 0.00 85 1012.8
20260903041117 83 230 2.0 8.0 0.00 0.00 0.00 85 1012.6
20260903040550 83 250 2.0 6.0 0.00 0.00 0.00 84 1012.6
20260903040031 83 213 3.0 7.0 0.00 0.00 0.00 84 1012.6
20260903035527 83 225 3.0 12.0 0.00 0.00 0.00 84 1012.5
20260903034957 83 214 3.0 12.0 0.00 0.00 0.00 84 1012.6
20260903034455 83 233 3.0 7.0 0.00 0.00 0.00 85 1012.4
20260903033926 83 271 3.0 8.0 0.00 0.00 0.00 85 1012.4
20260903033357 83 192 3.0 10.0 0.00 0.00 0.00 85 1012.3
20260903032855 83 230 3.0 10.0 0.00 0.00 0.00 85 1012.2
20260903032327 83 156 3.0 7.0 0.00 0.00 0.00 85 1012.1
20260903031828 83 232 2.0 7.0 0.00 0.00 0.00 85 1012.0
20260903031259 83 229 2.0 7.0 0.00 0.00 0.00 85 1011.9
20260903030731 83 240 2.0 7.0 0.00 0.00 0.00 85 1011.8
20260903030230 83 221 2.0 7.0 0.00 0.00 0.00 85 1011.9
20260903025708 83 267 2.0 9.0 0.00 0.00 0.00 85 1012.1
20260903025201 83 267 2.0 9.0 0.00 0.00 0.00 84 1012.2
20260903024642 83 275 2.0 7.0 0.00 0.00 0.00 84 1012.3
20260903024133 83 282 2.0 6.0 0.00 0.00 0.00 84 1012.3
20260903023605 83 248 2.0 6.0 0.00 0.00 0.00 84 1012.6
20260903023035 83 259 2.0 6.0 0.00 0.00 0.00 84 1012.7
20260903022533 83 333 2.0 7.0 0.00 0.00 0.00 83 1012.8
20260903022030 83 235 2.0 7.0 0.00 0.00 0.00 83 1012.8
20260903021530 84 256 1.0 4.0 0.00 0.00 0.00 82 1012.9
20260903021023 84 238 1.0 5.0 0.00 0.00 0.00 82 1012.8
20260903020524 84 207 1.0 5.0 0.00 0.00 0.00 81 1012.9
20260903020018 84 236 1.0 5.0 0.00 0.00 0.00 81 1012.8
20260903015516 84 236 1.0 5.0 0.00 0.00 0.00 81 1013.0
20260903014948 84 209 2.0 4.0 0.00 0.00 0.00 81 1012.9
20260903014422 84 252 1.0 4.0 0.00 0.00 0.00 81 1012.9
20260903013920 84 240 1.0 3.0 0.00 0.00 0.00 81 1012.9
20260903013416 84 242 1.0 3.0 0.00 0.00 0.00 81 1013.0
20260903012914 84 239 1.0 3.0 0.00 0.00 0.00 81 1013.0
20260903012345 84 175 1.0 4.0 0.00 0.00 0.00 80 1013.0
20260903011842 84 157 1.0 4.0 0.00 0.00 0.00 80 1013.1
20260903011314 84 239 0.0 3.0 0.00 0.00 0.00 81 1013.0
20260903010749 84 242 0.0 0.0 0.00 0.00 0.00 81 1013.0
20260903010221 84 242 0.0 0.0 0.00 0.00 0.00 81 1012.9
20260903005717 84 242 0.0 0.0 0.00 0.00 0.00 81 1012.8
20260903005218 85 242 0.0 2.0 0.00 0.00 0.00 81 1012.8
20260903004711 85 242 2.0 6.0 0.00 0.00 0.00 80 1012.8
20260903004148 85 231 2.0 6.0 0.00 0.00 0.00 80 1012.8
20260903003640 85 195 1.0 5.0 0.00 0.00 0.00 79 1012.7
20260903003115 85 233 1.0 5.0 0.00 0.00 0.00 79 1012.8
20260903002603 85 253 1.0 4.0 0.00 0.00 0.00 78 1012.7
20260903002110 86 241 1.0 5.0 0.00 0.00 0.00 78 1012.8
20260903001601 86 278 1.0 5.0 0.00 0.00 0.00 77 1012.9
20260903001059 87 225 0.0 3.0 0.00 0.00 0.00 77 1012.8
20260903000556 87 246 0.0 3.0 0.00 0.00 0.00 77 1012.9
20260903000028 87 279 1.0 6.0 0.00 0.00 0.00 76 1012.8
20260902235529 87 247 2.0 6.0 0.00 0.00 0.00 76 1012.7
20260902235019 87 219 2.0 5.0 0.00 0.00 0.00 75 1012.8
20260902234518 88 259 1.0 5.0 0.00 0.00 0.00 75 1012.7
20260902233953 88 255 2.0 7.0 0.00 0.00 0.00 75 1012.5
20260902233450 88 241 2.0 7.0 0.00 0.00 0.00 75 1012.6
20260902232929 88 261 2.0 6.0 0.00 0.00 0.00 75 1012.4
20260902232427 89 238 2.0 7.0 0.00 0.00 0.00 74 1012.3
20260902231907 89 236 2.0 7.0 0.00 0.00 0.00 74 1012.5
20260902231400 89 236 2.0 7.0 0.00 0.00 0.00 73 1012.4
20260902230846 89 262 2.0 7.0 0.00 0.00 0.00 73 1012.4
20260902230338 90 163 2.0 5.0 0.00 0.00 0.00 73 1012.4
20260902225817 90 233 2.0 7.0 0.00 0.00 0.00 72 1012.4
20260902225316 90 221 2.0 7.0 0.00 0.00 0.00 71 1012.3
20260902224818 91 221 2.0 4.0 0.00 0.00 0.00 71 1012.3
20260902224319 91 217 2.0 8.0 0.00 0.00 0.00 70 1012.3
20260902223803 91 246 2.0 8.0 0.00 0.00 0.00 70 1012.4
20260902223258 92 234 2.0 5.0 0.00 0.00 0.00 69 1012.3
20260902222759 92 278 2.0 4.0 0.00 0.00 0.00 69 1012.4
20260902222240 92 248 2.0 5.0 0.00 0.00 0.00 69 1012.4
20260902221714 92 211 2.0 8.0 0.00 0.00 0.00 69 1012.4
20260902221156 92 247 2.0 8.0 0.00 0.00 0.00 69 1012.4
20260902220700 93 157 2.0 6.0 0.00 0.00 0.00 70 1012.6
20260902220141 93 222 2.0 8.0 0.00 0.00 0.00 70 1012.6
20260902215642 93 240 2.0 8.0 0.00 0.00 0.00 69 1012.6
20260902215139 94 255 2.0 4.0 0.00 0.00 0.00 68 1012.6
20260902214623 94 252 2.0 5.0 0.00 0.00 0.00 69 1012.7
20260902214104 94 253 3.0 6.0 0.00 0.00 0.00 67 1012.6
20260902213542 94 243 3.0 6.0 0.00 0.00 0.00 67 1012.7
20260902213042 94 198 3.0 9.0 0.00 0.00 0.00 67 1012.8
20260902212543 94 215 2.0 9.0 0.00 0.00 0.00 66 1012.8
20260902212019 94 220 2.0 8.0 0.00 0.00 0.00 66 1012.8
20260902211453 93 247 3.0 9.0 0.00 0.00 0.00 66 1012.8
20260902210929 93 258 3.0 9.0 0.00 0.00 0.00 67 1012.9
20260902210428 94 246 3.0 9.0 0.00 0.00 0.00 65 1012.8
20260902205914 93 252 3.0 9.0 0.00 0.00 0.00 66 1012.8
20260902205347 93 281 3.0 9.0 0.00 0.00 0.00 66 1012.9
20260902204847 94 282 3.0 9.0 0.00 0.00 0.00 65 1013.0
20260902204323 94 234 3.0 8.0 0.00 0.00 0.00 65 1013.1
20260902203754 94 194 2.0 8.0 0.00 0.00 0.00 65 1013.2
20260902203255 95 248 2.0 7.0 0.00 0.00 0.00 65 1013.2
20260902202749 94 269 2.0 7.0 0.00 0.00 0.00 65 1013.3
20260902202245 94 279 3.0 7.0 0.00 0.00 0.00 65 1013.4
20260902201741 94 246 3.0 7.0 0.00 0.00 0.00 66 1013.4
20260902201216 94 175 3.0 8.0 0.00 0.00 0.00 66 1013.5
20260902200648 94 225 3.0 8.0 0.00 0.00 0.00 65 1013.5
20260902200147 94 267 3.0 7.0 0.00 0.00 0.00 65 1013.5
20260902195644 94 186 3.0 7.0 0.00 0.00 0.00 67 1013.6
20260902195138 93 239 3.0 8.0 0.00 0.00 0.00 67 1013.5
20260902194613 93 222 4.0 10.0 0.00 0.00 0.00 68 1013.5
20260902194108 94 217 3.0 10.0 0.00 0.00 0.00 67 1013.6
20260902193606 95 255 2.0 7.0 0.00 0.00 0.00 66 1013.6
20260902193040 95 236 2.0 7.0 0.00 0.00 0.00 67 1013.6
20260902192514 95 224 2.0 8.0 0.00 0.00 0.00 68 1013.6
20260902191946 94 232 3.0 8.0 0.00 0.00 0.00 68 1013.7
20260902191443 94 240 3.0 8.0 0.00 0.00 0.00 67 1013.8
20260902190940 94 256 3.0 9.0 0.00 0.00 0.00 68 1013.9
20260902190438 94 167 3.0 9.0 0.00 0.00 0.00 68 1013.8
20260902185913 93 227 3.0 9.0 0.00 0.00 0.00 68 1013.9
20260902185408 93 200 3.0 9.0 0.00 0.00 0.00 69 1014.0
20260902184842 93 208 3.0 8.0 0.00 0.00 0.00 70 1014.0
20260902184314 94 260 3.0 10.0 0.00 0.00 0.00 69 1014.0
20260902183813 94 173 2.0 10.0 0.00 0.00 0.00 71 1014.0
20260902183245 93 211 2.0 7.0 0.00 0.00 0.00 71 1014.1
20260902182745 93 246 2.0 6.0 0.00 0.00 0.00 72 1014.1
20260902182214 92 218 2.0 5.0 0.00 0.00 0.00 71 1014.2
20260902181650 92 217 2.0 4.0 0.00 0.00 0.00 72 1014.3
20260902181122 90 209 2.0 7.0 0.00 0.00 0.00 73 1014.4
20260902180621 90 200 2.0 7.0 0.00 0.00 0.00 73 1014.4
20260902180053 90 282 3.0 8.0 0.00 0.00 0.00 72 1014.4
20260902175555 91 238 3.0 8.0 0.00 0.00 0.00 71 1014.4
20260902175023 91 266 3.0 8.0 0.00 0.00 0.00 71 1014.6
20260902174500 92 265 3.0 8.0 0.00 0.00 0.00 69 1014.7
20260902174004 92 242 2.0 4.0 0.00 0.00 0.00 70 1014.7
20260902173426 93 219 2.0 5.0 0.00 0.00 0.00 71 1014.8
20260902172924 93 221 2.0 5.0 0.00 0.00 0.00 74 1014.8
20260902172404 93 207 2.0 7.0 0.00 0.00 0.00 73 1014.9
20260902171830 92 204 2.0 4.0 0.00 0.00 0.00 73 1014.9
20260902171329 92 209 2.0 4.0 0.00 0.00 0.00 73 1015.0
20260902170805 92 201 2.0 4.0 0.00 0.00 0.00 73 1015.0
20260902170257 92 216 2.0 4.0 0.00 0.00 0.00 74 1015.1
20260902165734 91 207 2.0 4.0 0.00 0.00 0.00 74 1015.1
20260902165204 91 197 2.0 4.0 0.00 0.00 0.00 75 1015.3
20260902164700 91 196 2.0 4.0 0.00 0.00 0.00 75 1015.3
20260902164206 91 207 2.0 4.0 0.00 0.00 0.00 75 1015.4
20260902163655 90 187 2.0 4.0 0.00 0.00 0.00 75 1015.4
20260902163130 90 210 2.0 5.0 0.00 0.00 0.00 75 1015.4
20260902162606 90 209 2.0 5.0 0.00 0.00 0.00 76 1015.4
20260902162058 90 205 2.0 5.0 0.00 0.00 0.00 76 1015.5
20260902161557 89 204 2.0 5.0 0.00 0.00 0.00 76 1015.7
20260902161053 89 206 2.0 4.0 0.00 0.00 0.00 77 1015.5
20260902160551 89 196 2.0 4.0 0.00 0.00 0.00 78 1015.4
20260902160022 88 192 2.0 4.0 0.00 0.00 0.00 78 1015.4
20260902155519 88 209 2.0 4.0 0.00 0.00 0.00 79 1015.4
20260902155016 87 202 1.0 4.0 0.00 0.00 0.00 80 1015.4
20260902154513 87 225 1.0 4.0 0.00 0.00 0.00 80 1015.4
20260902153948 86 180 1.0 4.0 0.00 0.00 0.00 79 1015.5
20260902153422 86 291 1.0 4.0 0.00 0.00 0.00 80 1015.4
20260902152854 85 184 1.0 4.0 0.00 0.00 0.00 82 1015.5
20260902152354 84 229 1.0 4.0 0.00 0.00 0.00 83 1015.4
20260902151828 84 236 1.0 3.0 0.00 0.00 0.00 83 1015.5
20260902151258 84 267 1.0 3.0 0.00 0.00 0.00 83 1015.5
20260902150730 84 266 1.0 4.0 0.00 0.00 0.00 82 1015.4
20260902150208 84 217 1.0 3.0 0.00 0.00 0.00 82 1015.3
20260902145640 84 217 1.0 3.0 0.00 0.00 0.00 82 1015.3
20260902145112 85 217 1.0 4.0 0.00 0.00 0.00 81 1015.4
20260902144617 85 221 0.0 1.0 0.00 0.00 0.00 83 1015.3
20260902144048 84 221 1.0 4.0 0.00 0.00 0.00 84 1015.3
20260902143522 83 252 1.0 6.0 0.00 0.00 0.00 85 1015.3
20260902143018 83 227 1.0 6.0 0.00 0.00 0.00 85 1015.3
20260902142518 83 237 1.0 4.0 0.00 0.00 0.00 85 1015.2
20260902141955 82 277 2.0 8.0 0.00 0.00 0.00 86 1015.2
20260902141453 82 261 1.0 8.0 0.00 0.00 0.00 86 1015.2
20260902140951 82 184 1.0 7.0 0.00 0.00 0.00 87 1015.3
20260902140449 81 184 2.0 7.0 0.00 0.00 0.00 87 1015.2
20260902135931 81 239 2.0 6.0 0.00 0.00 0.00 88 1015.2
20260902135406 81 243 2.0 9.0 0.00 0.00 0.00 88 1015.3
20260902134844 81 219 2.0 9.0 0.00 0.00 0.00 88 1015.2
20260902134346 81 240 1.0 4.0 0.00 0.00 0.00 88 1015.2
20260902133827 81 225 1.0 4.0 0.00 0.00 0.00 89 1015.2
20260902133325 80 277 1.0 4.0 0.00 0.00 0.00 90 1015.2
20260902132826 80 200 1.0 4.0 0.00 0.00 0.00 90 1015.3
20260902132309 80 148 1.0 6.0 0.00 0.00 0.00 90 1015.2
20260902131808 80 312 1.0 6.0 0.00 0.00 0.00 90 1015.1
20260902131251 79 229 1.0 4.0 0.00 0.00 0.00 91 1015.1
20260902130753 79 238 1.0 5.0 0.00 0.00 0.00 91 1015.1
20260902130235 79 243 1.0 5.0 0.00 0.00 0.00 92 1015.2
20260902125706 78 229 1.0 4.0 0.00 0.00 0.00 92 1015.2
20260902125148 78 220 1.0 4.0 0.00 0.00 0.00 93 1015.2
20260902124645 78 246 1.0 4.0 0.00 0.00 0.00 93 1015.1
20260902124141 78 263 1.0 5.0 0.00 0.00 0.00 93 1015.1
20260902123642 78 243 1.0 5.0 0.00 0.00 0.00 93 1015.2
20260902123120 78 196 1.0 3.0 0.00 0.00 0.00 93 1015.2
20260902122619 78 280 0.0 3.0 0.00 0.00 0.00 94 1015.2
20260902122117 78 280 1.0 4.0 0.00 0.00 0.00 93 1015.0
20260902121547 77 280 1.0 4.0 0.00 0.00 0.00 93 1015.0
20260902121048 77 234 1.0 3.0 0.00 0.00 0.00 94 1015.0
20260902120531 77 267 0.0 3.0 0.00 0.00 0.00 94 1014.9
20260902120028 77 252 0.0 3.0 0.00 0.00 0.00 94 1015.0
20260902115526 77 255 0.0 3.0 0.00 0.00 0.00 94 1015.0
20260902115026 77 257 0.0 3.0 0.00 0.00 0.00 94 1014.9
20260902114522 77 254 0.0 4.0 0.00 0.00 0.00 94 1014.8
20260902114020 77 256 1.0 4.0 0.00 0.00 0.00 94 1014.8
20260902113515 77 259 1.0 3.0 0.00 0.00 0.00 95 1014.8
20260902113018 77 234 1.0 3.0 0.00 0.00 0.00 95 1014.7
20260902112444 76 228 1.0 3.0 0.00 0.00 0.00 95 1014.7
20260902111918 76 256 0.0 3.0 0.00 0.00 0.00 95 1014.5
20260902111421 76 263 0.0 4.0 0.00 0.00 0.00 95 1014.5
20260902110849 76 263 1.0 4.0 0.00 0.00 0.00 95 1014.6
20260902110322 76 273 0.0 7.0 0.00 0.00 0.00 95 1014.6
20260902105819 76 256 0.0 7.0 0.00 0.00 0.00 95 1014.5
20260902105318 76 213 0.0 0.0 0.00 0.00 0.00 95 1014.5
20260902104804 76 213 0.0 0.0 0.00 0.00 0.00 95 1014.4
20260902104308 76 248 0.0 0.0 0.00 0.00 0.00 95 1014.4
20260902103755 76 248 0.0 0.0 0.00 0.00 0.00 95 1014.6
20260902103257 76 213 0.0 0.0 0.00 0.00 0.00 95 1014.4
20260902102732 76 213 0.0 0.0 0.00 0.00 0.00 95 1014.3
20260902102231 76 200 0.0 0.0 0.00 0.00 0.00 95 1014.3
20260902101658 76 221 0.0 0.0 0.00 0.00 0.00 95 1014.4
20260902101131 76 221 0.0 1.0 0.00 0.00 0.00 95 1014.4
20260902100605 76 221 0.0 1.0 0.00 0.00 0.00 95 1014.5
20260902100037 76 207 0.0 0.0 0.00 0.00 0.00 95 1014.4
20260902095536 76 198 0.0 0.0 0.00 0.00 0.00 95 1014.4
20260902095031 76 210 0.0 0.0 0.00 0.00 0.00 95 1014.4
20260902094529 76 209 0.0 0.0 0.00 0.00 0.00 95 1014.5
20260902094021 76 209 0.0 0.0 0.00 0.00 0.00 95 1014.4
20260902093520 76 209 0.0 0.0 0.00 0.00 0.00 95 1014.4
20260902092953 76 205 0.0 0.0 0.00 0.00 0.00 95 1014.4
20260902092428 76 205 0.0 0.0 0.00 0.00 0.00 95 1014.4
20260902091915 76 216 0.0 0.0 0.00 0.00 0.00 95 1014.4
20260902091416 76 206 0.0 0.0 0.00 0.00 0.00 95 1014.6
20260902090347 76 244 0.0 0.0 0.00 0.00 0.00 95 1014.4
20260902085836 76 219 0.0 0.0 0.00 0.00 0.00 95 1014.5
20260902085310 76 219 0.0 0.0 0.00 0.00 0.00 95 1014.4
20260902084807 76 219 0.0 0.0 0.00 0.00 0.00 95 1014.4
20260902084304 76 219 0.0 0.0 0.00 0.00 0.00 95 1014.4
20260902083803 76 220 0.0 0.0 0.00 0.00 0.00 95 1014.5
20260902083242 76 220 0.0 0.0 0.00 0.00 0.00 95 1014.5
20260902082732 76 220 0.0 0.0 0.00 0.00 0.00 95 1014.4
20260902082228 76 220 0.0 0.0 0.00 0.00 0.00 95 1014.5
20260902081725 76 220 0.0 0.0 0.00 0.00 0.00 95 1014.5
20260902081201 76 220 0.0 0.0 0.00 0.00 0.00 95 1014.5
20260902080655 76 220 0.0 0.0 0.00 0.00 0.00 95 1014.4
20260902080155 76 220 0.0 0.0 0.00 0.00 0.00 95 1014.4
20260902075649 76 220 0.0 0.0 0.00 0.00 0.00 95 1014.4
20260902075146 76 220 0.0 0.0 0.00 0.00 0.00 94 1014.4
20260902074619 76 220 0.0 0.0 0.00 0.00 0.00 94 1014.4
20260902074051 76 220 0.0 0.0 0.00 0.00 0.00 94 1014.3
20260902073549 76 220 0.0 0.0 0.00 0.00 0.00 94 1014.2
20260902073024 76 220 0.0 0.0 0.00 0.00 0.00 94 1014.3
20260902072454 76 220 0.0 0.0 0.00 0.00 0.00 94 1014.1
20260902071950 76 220 0.0 0.0 0.00 0.00 0.00 94 1014.2
20260902071424 76 220 0.0 0.0 0.00 0.00 0.00 94 1014.3
20260902070856 77 220 0.0 0.0 0.00 0.00 0.00 94 1014.2
20260902070358 77 220 0.0 0.0 0.00 0.00 0.00 93 1014.3
20260902065828 77 220 0.0 0.0 0.00 0.00 0.00 93 1014.3
20260902065323 76 220 0.0 0.0 0.00 0.00 0.00 93 1014.3
20260902064821 76 220 0.0 0.0 0.00 0.00 0.00 93 1014.4
20260902064253 76 220 0.0 0.0 0.00 0.00 0.00 92 1014.5
20260902063751 76 220 0.0 0.0 0.00 0.00 0.00 92 1014.4
20260902063226 76 300 0.0 0.0 0.00 0.00 0.00 92 1014.6
20260902062657 76 300 0.0 0.0 0.00 0.00 0.00 91 1014.5
20260902062156 76 300 0.0 0.0 0.00 0.00 0.00 91 1014.6
20260902061628 76 300 0.0 0.0 0.00 0.00 0.00 91 1014.6
20260902061127 76 300 0.0 0.0 0.00 0.00 0.00 91 1014.6
20260902060620 76 300 0.0 0.0 0.00 0.00 0.00 91 1014.6
20260902060117 76 300 0.0 0.0 0.00 0.00 0.00 91 1014.8
20260902055615 76 300 0.0 0.0 0.00 0.00 0.00 91 1014.8
20260902055118 76 300 0.0 0.0 0.00 0.00 0.00 91 1014.8
20260902054612 76 300 0.0 0.0 0.00 0.00 0.00 91 1014.8
20260902054109 76 301 0.0 0.0 0.00 0.00 0.00 91 1014.8
20260902053603 76 301 0.0 0.0 0.00 0.00 0.00 91 1014.7
20260902053101 76 301 0.0 0.0 0.00 0.00 0.00 91 1014.7
20260902052539 76 301 0.0 0.0 0.00 0.00 0.00 91 1014.7
20260902052041 76 301 0.0 0.0 0.00 0.00 0.00 91 1014.8